This is the latest recevied weather packets stored in our database for station/object EA2DXT-10. If no packets are shown the sender has not sent any weather packets the latest 10 day(s).
| Time | Temp. | Humidity | Pressure | Rain* | Wind** | Luminosity | Snow |
|---|---|---|---|---|---|---|---|
| 1777657810 | 22.22° C | 54% | 951.5 hPa | - | - | - | - |
| 1777656009 | 22.78° C | 53% | 951.8 hPa | - | - | - | - |
| 1777654209 | 22.78° C | 52% | 951.6 hPa | - | - | - | - |
| 1777653309 | 22.78° C | 52% | 951.4 hPa | - | - | - | - |
| 1777651508 | 22.78° C | 51% | 951.5 hPa | - | - | - | - |
| 1777649709 | 22.78° C | 51% | 951.5 hPa | - | - | - | - |
| 1777647908 | 22.78° C | 52% | 951.5 hPa | - | - | - | - |
| 1777646107 | 22.78° C | 52% | 951.8 hPa | - | - | - | - |
| 1777644307 | 22.78° C | 53% | 952.1 hPa | - | - | - | - |
| 1777642507 | 22.78° C | 53% | 952.5 hPa | - | - | - | - |
| 1777640708 | 22.78° C | 52% | 952.6 hPa | - | - | - | - |
| 1777627405 | 24.44° C | 46% | 953 hPa | - | - | - | - |
| 1777626505 | 25° C | 45% | 952.9 hPa | - | - | - | - |
| 1777625605 | 25° C | 46% | 952.9 hPa | - | - | - | - |
| 1777624703 | 25° C | 46% | 952.8 hPa | - | - | - | - |
| 1777623801 | 25° C | 46% | 952.9 hPa | - | - | - | - |
| 1777622900 | 25° C | 45% | 952.8 hPa | - | - | - | - |
| 1777622000 | 25° C | 45% | 952.8 hPa | - | - | - | - |
| 1777621099 | 24.44° C | 45% | 952.9 hPa | - | - | - | - |
| 1777620198 | 24.44° C | 45% | 952.9 hPa | - | - | - | - |
| 1777619298 | 25° C | 44% | 952.9 hPa | - | - | - | - |
| 1777618398 | 24.44° C | 45% | 952.8 hPa | - | - | - | - |
| 1777617497 | 23.89° C | 45% | 952.8 hPa | - | - | - | - |
| 1777616596 | 23.89° C | 45% | 952.8 hPa | - | - | - | - |
| 1777615695 | 23.89° C | 45% | 952.7 hPa | - | - | - | - |
* Rain since midnight (hover to see other rain measurements)
** Current wind speed in m/s (hover to see current wind gust speed)